Find Starlink 30540

NORAD ID: 58002 Int'l Des: 2023-153 Owner: SPXS Country: US Constellation: starlink operational
LEOCIRCULAR

当前视图

正在加载3D地球...

About Starlink 30540

Starlink 30540 (NORAD 58002) is a starlink constellation satellite (v2 mini) launched Oct 5, 2023 by SPXS of US. It operates in LEO, CIRCULAR orbit with a mass of 730.00 kg.

关于 Starlink 30540

正在加载描述...

即将过境

Passes for default location (London). Set your location on the main map for personalized predictions.

高度历史

Loading altitude history...

两行轨道根数

1 58002U 23153M 26167.45394542 .00000862 00000-0 40835-4 0 9997
2 58002 43.0091 229.0556 0000824 230.3492 129.7287 15.27582440149907
Epoch: Jun 16, 2026 • Age: 42 hours

当前状态

高度 493.9 km
速度 7.62 km/s
星下点 -38.52°S, 119.35°E
发射日期 Oct 5, 2023
运行时间 2.6 years
类型 internet

技术详情

分类 Payload
质量 730.00 kg
干质量 700.00 kg
总质量 730.00 kg
长度 0.30 m
直径 4.10 m
跨度 29.00 m
形状 Box + pan
制造商 SPXS
平台类型 Starlink V2M
阶段状态 In Orbit
所有者/国家 SPXS/US

Most Searched